Location: Overspoor
(51.4747°N, 5.6641°E)
Time: 00:34:22
(UTC+02:00)

KKS-1 - Pass Details

Date: 29 June 2022
Orbit: 635 x 648 km, 98.2° (Epoch: 07 August)

Event Time Altitude Azimuth Distance (km) Brightness Sun altitude
Rises 00:07:21 0° 12° (NNE) 2,980 ? -12.5°
Reaches altitude 10° 00:09:35 10° 10° (N) 2,064 ? -12.6°
Maximum altitude 00:14:03 68° 289° (WNW) 703 ? -12.9°
Drops below altitude 10° 00:18:28 10° 206° (SSW) 2,043 ? -13.1°
Enters shadow 00:18:33 10° 206° (SSW) 2,076 ? -13.1°
